Location: Radomski Observatory
(40.2854°N, 79.5145°W)
Time: 11:13:43
(UTC-04:00)

Daily predictions for brighter satellites

Satellite Brightness Start Highest point End
(mag) Time Altitude Azimuth Time Altitude Azimuth Time Altitude Azimuth
Cosmos 1315 Rocket 3.2 20:31:34 10° N 20:35:30 44° ENE 20:39:20 10° SSE
Cosmos 2360 Rocket 4.0 20:37:30 10° E 20:37:46 10° E 20:38:03 10° E
Cosmos 1980 Rocket 2.2 20:32:09 10° SSW 20:37:49 87° ESE 20:43:33 10° NNE
USA 234 3.7 20:36:16 10° ESE 20:42:34 52° NE 20:48:54 10° NW
OTV 4 2.8 20:44:51 10° WSW 20:46:31 14° SSW 20:48:12 10° S
Intercosmos 25 Rocket 4.3 20:44:12 10° SE 20:46:46 22° E 20:49:40 10° NNE
Cosmos 1825 3.3 20:46:03 10° NNE 20:49:16 26° ENE 20:52:20 11° SE
CZ-2D R/B 3.3 20:45:53 10° SSE 20:49:46 86° ENE 20:53:41 10° N
Nadezhda 4 Rocket 4.3 20:47:49 10° N 20:54:05 75° W 21:00:22 10° S
SL-16 R/B 2.6 20:49:07 10° S 20:54:21 40° ESE 20:59:38 10° NE
ATLAS 5 CENTAUR R/B 3.8 20:56:39 10° NNW 21:01:24 24° NE 21:06:11 11° E
Cosmos 1634 Rocket 4.0 20:55:35 10° S 21:01:49 71° E 21:08:08 10° NNE
Cosmos 1862 4.4 20:58:43 10° NNE 21:02:10 27° ENE 21:04:33 16° SE
Cosmos 1092 Rocket 4.1 20:57:28 10° N 21:03:51 88° W 21:10:12 10° S
Cosmos 1707 Rocket 3.7 20:59:32 10° S 21:03:59 79° W 21:08:26 10° N
Helios 1B rocket 2.4 21:00:38 10° NNE 21:04:42 58° ESE 21:08:43 10° S
ERS-1 Rocket 4.1 21:02:10 14° ESE 21:05:30 27° ENE 21:09:42 10° N
Lacrosse 4 Rocket 2.1 21:01:39 10° NNW 21:05:45 41° ENE 21:08:47 17° ESE
USA 186 1.6 21:03:24 10° S 21:06:03 71° W 21:08:55 10° NNW
Cosmos 1655 Rocket 4.3 21:03:35 10° N 21:09:47 49° ENE 21:15:36 11° SSE
ALOS 4.5 21:05:54 10° SSW 21:09:48 26° W 21:13:44 10° NW
ERBS 2.4 21:07:07 10° NW 21:10:34 70° NE 21:12:44 21° SE
Cosmos 1733 Rocket 3.7 21:07:08 10° N 21:11:18 38° ENE 21:14:14 17° SE
SAR-Lupe-4 3.5 21:07:59 10° SSE 21:11:30 74° ENE 21:15:06 10° N
Cosmos 1939 Rocket 3.2 21:08:26 14° SE 21:11:43 48° ENE 21:15:36 10° N
Meteor 2-20 Rocket 4.5 21:05:48 10° N 21:11:53 66° E 21:17:58 10° SSE
CENTAUR R/B 4.3 21:07:09 10° WSW 21:12:46 35° NW 21:19:05 10° NNE
Cosmos 1486 Rocket 4.3 21:07:54 10° NNW 21:13:07 69° WSW 21:18:19 10° S
Cosmos 1862 Rocket 4.0 21:13:00 10° SSE 21:17:08 40° E 21:21:20 10° NNE
SeaSat 1 4.0 21:17:14 14° E 21:19:52 21° NE 21:23:30 10° N
ORS 1 (USA 231) 4.4 21:20:44 10° W 21:23:51 87° S 21:25:15 29° E
Cosmos 1992 Rocket 4.1 21:18:51 10° S 21:23:54 53° ESE 21:29:00 10° NNE
Cosmos 1408 2.5 21:21:08 10° N 21:24:51 78° E 21:27:28 18° SSE
Atlas Centaur 2 3.7 21:21:45 10° SW 21:27:50 30° SSE 21:31:33 21° ESE
SAR-Lupe-1 4.1 21:26:08 15° S 21:29:00 76° WSW 21:32:36 10° NNW
Abrixas rocket 4.0 21:29:26 10° W 21:32:23 30° NNW 21:35:20 10° NE
Cosmos 2242 Rocket 3.8 21:31:01 10° SSW 21:35:33 75° W 21:40:03 10° N
Helios 1A 3.9 21:36:52 10° S 21:40:56 46° W 21:45:04 10° NNW
Cosmos 2279 Rocket 3.9 21:36:50 10° S 21:43:05 87° E 21:49:21 10° N
Cosmos 1503 Rocket 4.2 21:39:16 10° NNW 21:44:30 70° WSW 21:48:09 20° S
Cosmos 1354 Rocket 4.3 21:43:14 10° NNW 21:48:27 64° WSW 21:52:09 19° S
MetOp-A 4.4 21:47:17 31° SE 21:49:30 51° ENE 21:54:41 10° N
Cosmos 1867 4.4 21:45:01 10° NNW 21:50:05 37° NE 21:52:05 28° E
Resurs 01 Rocket 4.3 21:49:58 10° SW 21:52:45 16° W 21:55:33 10° NW
H-2A R/B 3.2 21:52:49 23° E 21:53:35 24° ENE 21:57:30 10° NNE
OAO 3 Rocket 3.6 21:50:57 10° WSW 21:55:39 46° S 21:56:38 40° SSE
YAOGAN 6 2.6 21:56:56 44° S 21:58:00 76° W 22:01:38 10° NNW
FALCON 9 R/B 3.1 22:00:44 10° WSW 22:00:46 10° SW 22:00:46 10° SW
SPOT 5 3.1 22:04:10 44° ESE 22:05:09 51° ENE 22:09:42 10° N
Cosmos 968 Rocket 3.7 22:00:32 10° N 22:05:38 54° ENE 22:06:50 44° ESE
Cosmos 2263 Rocket 2.1 22:00:35 10° NNW 22:06:11 85° WSW 22:08:25 38° SSE
COSMOS 2428 3.8 22:10:12 26° ENE 22:10:12 26° ENE 22:13:36 10° NE
Meteor 2-10 Rocket 3.7 22:05:37 20° S 22:09:44 84° E 22:15:34 10° N
Envisat 4.4 22:05:53 10° SSW 22:10:28 34° W 22:15:06 10° NNW
Cosmos 2322 Rocket 3.2 22:05:13 10° SW 22:10:34 46° WNW 22:16:00 10° NNE
Cosmos 1933 4.3 22:11:30 16° SSW 22:14:31 45° W 22:18:24 10° N
Sich 1 Rocket 3.5 22:11:21 10° N 22:15:51 85° E 22:16:31 64° SSE
Cosmos 2360 Rocket 2.1 22:15:49 13° SSW 22:20:49 85° ESE 22:26:31 10° NNE
H-2A R/B 3.6 22:23:59 24° NE 22:23:59 24° NE 22:26:44 10° NNE
USA 234 3.8 22:22:52 31° S 22:25:35 48° SW 22:31:54 10° WNW
Cosmos 1908 Rocket 3.6 22:24:04 10° NNW 22:28:23 69° W 22:28:49 63° SW
Cosmos 2322 3.6 22:25:27 27° SSW 22:28:41 84° ESE 22:34:25 10° NNE
Meteor 1-20 Rocket 4.3 22:24:19 10° N 22:29:46 53° ENE 22:30:10 52° E
NOAA 11 4.3 22:28:03 44° S 22:29:50 73° WSW 22:35:20 10° NNW
USA 245 4.2 22:30:43 52° SSE 22:32:15 89° WSW 22:37:32 10° NNW
SL-16 R/B 4.1 22:33:40 10° WSW 22:38:33 29° WNW 22:43:28 10° N
SPOT 1/Viking Rocket 3.4 22:40:22 76° ESE 22:40:42 80° ENE 22:45:57 10° N
Cosmos 1782 Rocket 3.7 22:38:04 10° N 22:41:59 71° NNW 22:41:59 71° NNW
ERS-1 Rocket 4.3 22:42:09 25° SW 22:44:07 34° W 22:48:41 10° NNW
Lacrosse 4 Rocket 3.6 22:41:08 10° WNW 22:44:09 19° WSW 22:45:08 17° WSW
Okean 2 Rocket 3.5 22:41:13 10° N 22:44:59 59° NNE 22:44:59 59° NNE
ATLAS 5 CENTAUR R/B 2.4 22:40:37 10° NW 22:46:40 76° WSW 22:47:45 62° S
Cosmos 2333 Rocket 4.0 22:52:12 19° ENE 22:52:12 19° ENE 22:54:03 10° NE
Landsat 7 4.1 22:54:27 59° NNE 22:54:27 59° NNE 22:58:28 10° N
ARGOS 3.4 22:52:58 53° SW 22:53:45 58° W 22:59:04 10° NNW
Milstar 3 4.1 22:49:05 10° WSW 22:53:10 21° SSW 22:53:10 21° SSW
Cosmos 2237 Rocket 4.3 22:59:46 14° ENE 22:59:46 14° ENE 23:00:41 10° NE
SeaSat 1 2.8 22:57:02 57° WSW 22:57:02 57° WSW 23:01:52 10° NW
Cosmos 2278 Rocket 3.6 22:55:28 10° N 23:00:07 26° NE 23:00:07 26° NE
Cosmos 1777 Rocket 4.1 23:01:54 10° NNW 23:06:40 72° NNW 23:06:40 72° NNW
Okean 1-7 4.0 23:07:56 45° NW 23:07:56 45° NW 23:11:40 10° N
Terra 2.5 23:10:04 48° N 23:10:04 48° N 23:13:36 10° N
Cosmos 1844 Rocket 2.8 23:04:02 10° NNW 23:09:04 65° NNE 23:09:04 65° NNE
USA 229 DEB 3.9 23:05:15 10° SW 23:12:02 67° NW 23:18:58 10° NNE
USA 229 3.9 23:05:20 10° SW 23:12:07 68° NW 23:19:03 10° NNE
Atlas Centaur 2 3.8 23:09:34 10° WSW 23:14:12 33° SW 23:14:12 33° SW
SL-19 R/B 4.4 23:18:30 10° NNE 23:24:12 78° N 23:24:12 78° N
Cosmos 2219 Rocket 3.1 23:28:37 40° NE 23:28:37 40° NE 23:32:11 10° NNE
CZ-4C R/B 3.5 23:24:19 10° NNW 23:31:04 44° NE 23:32:09 42° ENE
H-2A R/B 3.1 23:33:27 37° W 23:33:27 37° W 23:37:25 10° NNW
Meteor 1-11 Rocket 4.2 23:28:53 10° N 23:33:08 53° N 23:33:08 53° N
Cosmos 1553 Rocket 4.2 23:48:00 68° NW 23:48:00 68° NW 23:53:40 10° N
H-2A R/B 4.4 23:20:58 10° W 23:51:33 38° SW 23:51:33 38° SW
COSMOS 2428 3.8 23:52:07 37° WNW 23:52:50 39° WNW 23:58:10 10° N
